Flag for Japan Weather past 2 weeks in Fukuoka, Japan

Now
70 °F

Sunny.


Feels Like: 70 °F
Forecast: 71 / 81 °F
Wind: 3 mph from Southeast

Location: Fukuoka Airport

Current Time: Sep 17, 2014 at 7:28:39 AM

Latest Report: Sep 17, 2014 at 7:00 AM


Visibility: 10 mi

Pressure: 29.95 "Hg

Humidity: 78%

Dew point: 63 °F

Location of FukuokaLocation

Historic Weather in Fukuoka — Graph

°F

Fukuoka temperature yesterday

Maximum temperature yesterday: 84 °F (at 11:30 AM)
Minimum temperature yesterday: 72 °F (at 1:00 AM)
Average temperature yesterday: 76 °F

Past Weeks' High & Low Weather Summary

 TemperatureHumidityPressure
High86 °F (Sep 2, 11:00 AM)100% (Sep 3, 6:49 PM)29.95 "Hg (Sep 3, 6:49 PM)
Low64 °F (Sep 14, 3:00 AM)31% (Sep 13, 3:00 PM)29.62 "Hg (Sep 8, 1:30 PM)
Average76 °F72%29.81 "Hg
* Reported Sep 2 6:30 AM — Sep 17 6:30 AM, Fukuoka, Weather by CustomWeather, © 2014

Note: Actual official high and low records may vary slightly from our data, if they occured in-between our weather recording intervals... More about our weather records

Advertising

Fukuoka weather history for previous 24 hours

 ConditionsComfort  
Time TempWeatherWind HumidityBarometerVisibility
6:30 AM
Sep 17
70 °FSunny.2 mph78%29.95 "Hg10 mi
6:00 AM70 °FClear.3 mph78%29.95 "Hg10 mi
5:30 AM70 °FPassing clouds.2 mph78%29.95 "HgN/A
5:00 AM68 °FPassing clouds.2 mph88%29.95 "HgN/A
4:30 AM70 °FPassing clouds.3 mph78%29.92 "HgN/A
4:00 AM70 °FPassing clouds.1 mph83%29.92 "HgN/A
3:30 AM70 °FPassing clouds.1 mph78%29.92 "HgN/A
3:00 AM72 °FPassing clouds.1 mph73%29.92 "HgN/A
2:30 AM72 °FPassing clouds.1 mph73%29.92 "HgN/A
2:00 AM72 °FPassing clouds.1 mph73%29.92 "HgN/A
1:30 AM72 °FPassing clouds.3 mph73%29.92 "HgN/A
1:00 AM72 °FPassing clouds.3 mph73%29.92 "HgN/A
12:30 AM72 °FPassing clouds.2 mph78%29.92 "HgN/A
12:00 AM72 °FPassing clouds.3 mph73%29.92 "HgN/A
11:30 PM
Sep 16
72 °FPassing clouds.1 mph73%29.95 "HgN/A
11:00 PM72 °FPassing clouds.2 mph73%29.95 "HgN/A
10:30 PM73 °FPassing clouds.3 mph69%29.92 "HgN/A
10:00 PM75 °FPassing clouds.2 mph61%29.92 "HgN/A
9:30 PM75 °FPassing clouds.3 mph61%29.92 "HgN/A
9:00 PM77 °FPassing clouds.2 mph57%29.92 "HgN/A
8:30 PM75 °FPassing clouds.3 mph61%29.92 "HgN/A
8:00 PM75 °FPassing clouds.6 mph65%29.92 "HgN/A
7:30 PM75 °FPassing clouds.8 mph65%29.92 "HgN/A
7:00 PM75 °FPartly cloudy.8 mph65%29.92 "HgN/A
6:30 PM77 °FPassing clouds.9 mph61%29.92 "HgN/A
6:00 PM77 °FPassing clouds.8 mph61%29.92 "HgN/A
5:30 PM79 °FPartly sunny.13 mph58%29.92 "HgN/A
5:00 PM81 °FPartly sunny.12 mph51%29.89 "HgN/A
4:30 PM81 °FPartly sunny.13 mph54%29.89 "HgN/A
4:00 PM81 °FPassing clouds.13 mph54%29.89 "HgN/A
3:30 PM82 °FPassing clouds.16 mph51%29.89 "HgN/A
3:00 PM82 °FPassing clouds.15 mph48%29.89 "HgN/A
2:30 PM82 °FPassing clouds.14 mph48%29.89 "HgN/A
2:00 PM82 °FScattered clouds.14 mph45%29.89 "HgN/A
1:30 PM82 °FScattered clouds.15 mph51%29.89 "HgN/A
1:00 PM82 °FPassing clouds.14 mph55%29.89 "HgN/A
12:30 PM82 °FPassing clouds.15 mph51%29.89 "HgN/A
12:00 PM82 °FPassing clouds.14 mph51%29.89 "HgN/A
11:30 AM84 °FPassing clouds.8 mph40%29.92 "HgN/A
11:00 AM82 °FPassing clouds.5 mph48%29.92 "HgN/A
10:30 AM81 °FScattered clouds.6 mph48%29.92 "HgN/A
10:00 AM81 °FScattered clouds.3 mph48%29.92 "HgN/A
9:30 AM79 °FScattered clouds.5 mph58%29.92 "HgN/A
9:00 AM79 °FScattered clouds.3 mph61%29.92 "HgN/A
8:30 AM77 °FScattered clouds.7 mph65%29.92 "HgN/A
8:00 AM75 °FScattered clouds.3 mph74%29.92 "HgN/A
7:30 AM73 °FPartly sunny.3 mph83%29.92 "HgN/A
7:00 AM72 °FPartly sunny.3 mph83%29.92 "HgN/A
Weather by CustomWeather, © 2014

See weather overviewHow to use our weather pages